Weather in Pishma

Russia / Sverdlovsk Oblast     56°57′12″N   63°14′49″E
temp.,
°C
wind,
m/s
gust,
m/s
humid.,
%
clouds,
%
prec.,
mm/h
press.,
hPa
HPBL,
m
26 july, mon
mon2623:00+11nw376152 0.0 1016115
02:00+13nw2659100 0.0 1017189
05:00+9nw38745 0.0 1018142
08:00+14nw48525 0.0 1018583
11:00+17nw6740100 0.0 10172057
14:00+19wnw5734100 0.0 10162676
17:00+18wnw473978 0.0 10161821
20:00+16w374999 0.0 1015220
27 july, tue
tue2723:00+12wsw3766100 0.0 1015118
02:00+11w38765 0.0 1015182
05:00+9wsw37895 0.0 1014120
08:00+14sw4964100 0.0 1012395
11:00+21w7943100 0.0 10102386
14:00+13w3994100 1.8 1011510
17:00+18wnw476628 2.4 10091324
20:00+16w3775100 0.6 1009205
28 july, wed
wed2823:00+12nw5128351 0.6 1009274
02:00+12nw496940 0.0 1009328
05:00+6nw38885 0.0 1010162
08:00+13wnw486067 0.0 1010699
11:00+17wnw5846100 0.0 10081973
14:00+15wnw575895 0.7 10081442
17:00+16nw594890 1.3 10091959
20:00+13n255562 0.0 1010200
29 july, thu
thu2923:00+11w235950 0.0 101183
02:00+7wnw3776100 0.0 1011141
05:00+7wsw3579100 0.0 1011105
08:00+8wsw1286100 0.5 1010132
11:00+11ssw367994 0.7 1010434
14:00+17w366290 0.1 10091296
17:00+20wnw365430 0.3 10071264
20:00+16nw227094 0.3 100717
30 july, fri
fri3023:00+13ssw3696100 3.0 1007163
02:00+12sw41096100 0.1 1006225
05:00+12wsw389687 0.3 1005180
08:00+16w358794 0.0 1006300
11:00+22wsw4561100 0.0 1006929
14:00+23wsw4566100 1.1 10051250
17:00+23sw456396 2.3 10051060
20:00+19ssw3777100 0.6 1004200